contact:dominique.lefevre@mio.osupytheas.fr, maurice.libes@osupytheas.fr, didier.mallarino@osupytheas.fr
Project:EMSO http://www.emso-fr.org/EMSO-France
Depth: 2436.0 m
Title:EMSO Ligure Ouest : Data MII capteur AQUADOPP
Date,Latitude,Longitude,X_East,Y_North,Z_Up,Amplitude_X,Amplitude_Y,Amplitude_Z,Batterie,SoundSpeed,Heading,Pitch,Roll,Pressure,TIS,Speed,Direction
, degrees North, degrees East, m.s-1, m.s-1,m.s-1, 1, 1, 1, Volt, m.s-1, degree, degree, degree, dbar, degree_C, m.s-1, degree
2020-03-02T00:04:03,42.805,6.029,0.031,-0.024,-0.029,105.0,106.0,103.0,13.4,1505.3,327.0,-0.8,1.8,2470.34,13.31,0.039,127.7
2020-03-02T00:07:03,42.805,6.029,0.015,0.001,-0.023,106.0,108.0,102.0,13.4,1505.3,328.0,-0.7,1.8,2470.343,13.31,0.015,86.2
2020-03-02T00:10:03,42.805,6.029,0.003,-0.015,-0.017,107.0,108.0,103.0,13.3,1505.3,326.4,-0.7,1.8,2470.333,13.32,0.015,168.7
2020-03-02T00:13:03,42.805,6.029,0.02,-0.009,-0.025,108.0,108.0,103.0,13.4,1505.3,327.9,-0.7,1.8,2470.316,13.32,0.021,114.2
2020-03-02T00:16:03,42.805,6.029,0.012,-0.006,-0.02,105.0,109.0,102.0,13.3,1505.3,326.4,-0.7,1.8,2470.332,13.32,0.013,116.6
2020-03-02T00:19:03,42.805,6.029,-0.001,-0.011,-0.048,106.0,109.0,103.0,13.4,1505.3,327.5,-0.7,1.8,2470.319,13.32,0.011,185.2
2020-03-02T00:25:03,42.805,6.029,0.014,0.004,-0.019,106.0,109.0,103.0,13.4,1505.3,327.8,-0.7,1.8,2470.325,13.31,0.014,74.1
2020-03-02T00:28:03,42.805,6.029,0.036,-0.011,0.011,105.0,108.0,103.0,13.4,1505.3,323.9,-0.7,1.8,2470.346,13.31,0.037,107.0
2020-03-02T00:31:03,42.805,6.029,0.023,-0.015,0.01,107.0,110.0,103.0,13.4,1505.3,325.1,-0.7,1.9,2470.345,13.32,0.027,123.1
2020-03-02T00:34:03,42.805,6.029,-0.017,-0.001,-0.013,105.0,110.0,103.0,13.4,1505.3,327.3,-0.7,1.9,2470.32,13.32,0.017,266.6
2020-03-02T00:37:03,42.805,6.029,-0.001,-0.007,-0.039,107.0,110.0,103.0,13.3,1505.3,323.7,-0.7,1.9,2470.31,13.32,0.007,188.1
2020-03-02T00:40:03,42.805,6.029,-0.004,-0.004,-0.027,106.0,110.0,102.0,13.4,1505.3,323.0,-0.7,1.8,2470.328,13.33,0.005,225.0
2020-03-02T00:43:03,42.805,6.029,0.007,-0.01,-0.029,107.0,108.0,104.0,13.4,1505.3,326.3,-0.7,1.8,2470.303,13.33,0.012,145.0
2020-03-02T00:46:03,42.805,6.029,-0.009,-0.001,-0.043,107.0,110.0,103.0,13.4,1505.3,328.4,-0.7,1.8,2470.331,13.33,0.009,263.7
2020-03-02T00:49:03,42.805,6.029,-0.001,-0.002,-0.032,106.0,111.0,102.0,13.4,1505.3,326.9,-0.7,1.9,2470.272,13.33,0.002,206.6
2020-03-02T00:52:03,42.805,6.029,0.019,-0.009,-0.033,108.0,109.0,103.0,13.4,1505.3,323.7,-0.7,1.8,2470.331,13.33,0.021,115.3
2020-03-02T00:55:03,42.805,6.029,-0.005,-0.016,-0.05,107.0,109.0,103.0,13.3,1505.3,326.0,-0.7,1.8,2470.3,13.33,0.016,197.4
2020-03-02T00:58:03,42.805,6.029,0.02,-0.013,-0.032,107.0,109.0,103.0,13.3,1505.3,326.1,-0.7,1.9,2470.308,13.33,0.023,123.0
2020-03-02T01:04:03,42.805,6.029,-0.027,-0.003,-0.077,107.0,109.0,104.0,13.4,1505.3,326.9,-0.7,1.8,2470.338,13.31,0.027,263.7
2020-03-02T01:07:03,42.805,6.029,-0.016,-0.002,-0.021,107.0,109.0,103.0,13.3,1505.3,328.8,-0.7,1.9,2470.323,13.32,0.016,262.9
2020-03-02T01:10:03,42.805,6.029,-0.002,0.004,-0.039,106.0,109.0,103.0,13.3,1505.3,326.1,-0.7,1.8,2470.308,13.32,0.004,333.4
2020-03-02T01:13:03,42.805,6.029,0.0,0.014,0.0,106.0,109.0,103.0,13.4,1505.3,327.4,-0.8,1.8,2470.32,13.33,0.014,0.0
2020-03-02T01:16:03,42.805,6.029,0.018,0.001,0.003,108.0,111.0,102.0,13.4,1505.3,325.6,-0.7,1.8,2470.32,13.33,0.018,86.8
2020-03-02T01:19:03,42.805,6.029,0.016,0.01,0.005,107.0,108.0,104.0,13.4,1505.3,325.4,-0.7,1.8,2470.31,13.33,0.018,58.0
2020-03-02T01:22:03,42.805,6.029,-0.004,-0.002,-0.013,107.0,109.0,104.0,13.4,1505.3,323.5,-0.7,1.8,2470.287,13.33,0.004,243.4
2020-03-02T01:25:03,42.805,6.029,-0.01,-0.01,-0.016,106.0,111.0,104.0,13.4,1505.3,326.9,-0.7,1.9,2470.269,13.33,0.014,225.0
2020-03-02T01:28:03,42.805,6.029,0.006,-0.008,-0.013,107.0,111.0,103.0,13.4,1505.3,323.6,-0.7,1.8,2470.305,13.33,0.01,143.1
2020-03-02T01:31:03,42.805,6.029,-0.003,0.003,-0.026,107.0,110.0,103.0,13.4,1505.3,326.3,-0.7,1.8,2470.308,13.33,0.004,315.0
2020-03-02T01:34:03,42.805,6.029,0.0,-0.003,-0.035,106.0,110.0,103.0,13.3,1505.3,324.8,-0.8,1.8,2470.286,13.33,0.003,180.0
2020-03-02T01:37:03,42.805,6.029,-0.003,-0.003,-0.049,107.0,110.0,103.0,13.4,1505.3,327.6,-0.7,1.8,2470.309,13.33,0.004,225.0
2020-03-02T01:40:03,42.805,6.029,-0.002,0.019,-0.029,108.0,110.0,102.0,13.4,1505.3,327.3,-0.7,1.9,2470.328,13.33,0.019,354.0
2020-03-02T01:43:03,42.805,6.029,-0.008,0.018,-0.026,107.0,109.0,105.0,13.4,1505.3,327.8,-0.7,1.8,2470.274,13.33,0.019,336.0
2020-03-02T01:46:03,42.805,6.029,0.001,0.022,-0.02,107.0,109.0,103.0,13.3,1505.3,324.6,-0.7,1.8,2470.286,13.33,0.022,2.6
2020-03-02T01:49:03,42.805,6.029,0.002,-0.003,-0.051,107.0,109.0,103.0,13.4,1505.3,327.4,-0.7,1.8,2470.273,13.33,0.003,146.3
2020-03-02T01:52:03,42.805,6.029,0.002,0.011,-0.011,108.0,109.0,104.0,13.4,1505.3,323.1,-0.7,1.8,2470.25,13.33,0.011,10.3
2020-03-02T01:55:03,42.805,6.029,-0.009,0.0,-0.016,106.0,110.0,103.0,13.4,1505.3,325.6,-0.7,1.8,2470.276,13.33,0.009,270.0
2020-03-02T01:58:03,42.805,6.029,0.002,0.011,-0.031,107.0,110.0,103.0,13.4,1505.3,325.7,-0.7,1.8,2470.283,13.33,0.011,10.3
2020-03-02T02:04:03,42.805,6.029,-0.002,-0.008,-0.009,106.0,110.0,104.0,13.3,1505.3,323.6,-0.7,1.8,2470.304,13.31,0.008,194.0
2020-03-02T02:07:03,42.805,6.029,-0.025,0.003,-0.05,107.0,108.0,103.0,13.3,1505.3,323.5,-0.7,1.9,2470.297,13.32,0.025,276.8
2020-03-02T02:10:03,42.805,6.029,-0.012,0.0,-0.044,107.0,108.0,102.0,13.4,1505.3,326.5,-0.7,1.8,2470.234,13.32,0.012,270.0
2020-03-02T02:13:03,42.805,6.029,-0.006,0.012,-0.029,106.0,109.0,103.0,13.3,1505.3,326.8,-0.7,1.9,2470.317,13.33,0.013,333.4
2020-03-02T02:16:03,42.805,6.029,-0.005,0.01,-0.023,107.0,108.0,103.0,13.4,1505.3,325.6,-0.7,1.9,2470.271,13.33,0.011,333.4
2020-03-02T02:19:03,42.805,6.029,0.012,-0.003,-0.031,107.0,111.0,103.0,13.4,1505.3,327.8,-0.7,1.8,2470.27,13.33,0.012,104.0
2020-03-02T02:22:03,42.805,6.029,-0.011,0.012,-0.021,108.0,109.0,102.0,13.3,1505.3,326.2,-0.7,1.8,2470.265,13.33,0.016,317.5
2020-03-02T02:25:03,42.805,6.029,0.045,0.008,0.001,107.0,109.0,103.0,13.4,1505.3,328.1,-0.7,1.8,2470.266,13.33,0.045,79.9
2020-03-02T02:28:03,42.805,6.029,-0.008,0.009,-0.007,108.0,109.0,103.0,13.4,1505.3,323.9,-0.7,1.8,2470.3,13.33,0.012,318.4
2020-03-02T02:31:03,42.805,6.029,0.038,0.006,0.001,106.0,109.0,102.0,13.4,1505.3,326.7,-0.7,1.8,2470.273,13.33,0.038,81.0
2020-03-02T02:34:03,42.805,6.029,0.004,0.015,0.029,106.0,108.0,103.0,13.3,1505.3,324.7,-0.7,1.8,2470.313,13.33,0.015,14.9
2020-03-02T02:37:03,42.805,6.029,-0.011,0.006,-0.014,107.0,107.0,102.0,13.4,1505.3,323.6,-0.7,1.8,2470.247,13.33,0.012,298.6
2020-03-02T02:40:03,42.805,6.029,0.014,0.01,-0.005,106.0,110.0,103.0,13.4,1505.3,325.4,-0.7,1.8,2470.242,13.33,0.017,54.5
2020-03-02T02:43:03,42.805,6.029,-0.014,-0.017,-0.023,107.0,106.0,103.0,13.4,1505.3,328.3,-0.7,1.8,2470.247,13.33,0.022,219.5
2020-03-02T02:46:03,42.805,6.029,-0.011,0.001,-0.057,105.0,109.0,102.0,13.3,1505.3,327.2,-0.7,1.8,2470.247,13.33,0.011,275.2
2020-03-02T02:49:03,42.805,6.029,0.015,0.0,-0.027,106.0,109.0,104.0,13.4,1505.3,325.3,-0.7,1.8,2470.241,13.33,0.015,90.0
2020-03-02T02:52:03,42.805,6.029,0.018,0.001,-0.007,106.0,109.0,103.0,13.3,1505.3,325.2,-0.7,1.8,2470.28,13.33,0.018,86.8
2020-03-02T02:55:03,42.805,6.029,0.017,-0.002,-0.026,105.0,109.0,103.0,13.4,1505.3,323.2,-0.7,1.8,2470.23,13.33,0.017,96.7
2020-03-02T02:58:03,42.805,6.029,0.016,0.007,-0.011,105.0,107.0,103.0,13.4,1505.3,325.2,-0.7,1.9,2470.248,13.33,0.017,66.4
2020-03-02T03:04:03,42.805,6.029,0.041,0.005,0.016,106.0,109.0,103.0,13.4,1505.3,326.4,-0.7,1.8,2470.327,13.31,0.041,83.0
2020-03-02T03:07:03,42.805,6.029,0.035,-0.009,0.011,107.0,109.0,103.0,13.4,1505.3,326.7,-0.7,1.8,2470.313,13.32,0.036,104.4
2020-03-02T03:10:03,42.805,6.029,0.024,0.02,-0.012,106.0,108.0,104.0,13.3,1505.3,324.3,-0.7,1.9,2470.241,13.32,0.031,50.2
2020-03-02T03:13:03,42.805,6.029,0.023,0.007,-0.006,107.0,110.0,102.0,13.4,1505.3,324.8,-0.7,1.8,2470.269,13.33,0.024,73.1
2020-03-02T03:16:03,42.805,6.029,0.028,0.029,-0.015,106.0,108.0,102.0,13.4,1505.3,326.6,-0.7,1.8,2470.236,13.33,0.04,44.0
2020-03-02T03:19:03,42.805,6.029,0.03,0.007,-0.036,106.0,109.0,103.0,13.4,1505.3,327.0,-0.7,1.8,2470.227,13.33,0.03,76.9
2020-03-02T03:22:03,42.805,6.029,-0.017,-0.001,-0.018,106.0,109.0,103.0,13.3,1505.3,324.8,-0.7,1.8,2470.241,13.33,0.017,266.6
2020-03-02T03:25:03,42.805,6.029,0.0,0.008,-0.03,106.0,110.0,103.0,13.4,1505.3,324.5,-0.7,1.8,2470.266,13.33,0.008,0.0
2020-03-02T03:28:03,42.805,6.029,0.008,0.004,0.01,106.0,110.0,103.0,13.4,1505.3,327.0,-0.7,1.8,2470.227,13.33,0.008,63.4
2020-03-02T03:31:03,42.805,6.029,0.01,-0.004,0.006,106.0,110.0,103.0,13.4,1505.3,327.7,-0.7,1.8,2470.249,13.33,0.01,111.8
2020-03-02T03:34:03,42.805,6.029,-0.007,-0.004,-0.019,107.0,109.0,102.0,13.4,1505.3,327.5,-0.7,1.8,2470.24,13.33,0.008,240.3
2020-03-02T03:37:03,42.805,6.029,0.048,0.007,0.023,108.0,109.0,103.0,13.3,1505.3,325.9,-0.7,1.8,2470.233,13.33,0.048,81.7
2020-03-02T03:40:03,42.805,6.029,-0.007,0.01,-0.033,106.0,109.0,103.0,13.4,1505.3,322.9,-0.7,1.8,2470.256,13.33,0.012,325.0
2020-03-02T03:43:03,42.805,6.029,-0.013,0.014,-0.015,104.0,110.0,103.0,13.3,1505.3,325.5,-0.7,1.8,2470.265,13.33,0.019,317.1
2020-03-02T03:46:03,42.805,6.029,0.017,0.014,0.015,107.0,107.0,104.0,13.4,1505.3,324.8,-0.7,1.9,2470.264,13.33,0.022,50.5
2020-03-02T03:49:03,42.805,6.029,0.044,0.004,-0.002,107.0,108.0,102.0,13.3,1505.3,324.9,-0.7,1.8,2470.237,13.33,0.044,84.8
2020-03-02T03:52:03,42.805,6.029,0.03,0.019,-0.002,106.0,108.0,102.0,13.3,1505.3,328.0,-0.7,1.8,2470.269,13.33,0.035,57.7
2020-03-02T03:58:03,42.805,6.029,0.019,0.007,0.027,105.0,108.0,102.0,13.4,1505.3,323.0,-0.7,1.8,2470.297,13.31,0.02,69.8
2020-03-02T04:04:03,42.805,6.029,-0.004,0.011,-0.018,105.0,109.0,103.0,13.4,1505.2,326.8,-0.7,1.8,2470.276,13.3,0.011,340.0
2020-03-02T04:07:03,42.805,6.029,0.032,0.013,-0.041,107.0,108.0,104.0,13.3,1505.3,327.8,-0.7,1.8,2470.293,13.31,0.034,67.9
2020-03-02T04:10:03,42.805,6.029,0.013,0.004,-0.034,107.0,109.0,103.0,13.4,1505.3,326.3,-0.7,1.8,2470.279,13.32,0.013,72.9
2020-03-02T04:13:03,42.805,6.029,0.023,-0.003,-0.011,107.0,109.0,103.0,13.3,1505.3,324.8,-0.7,1.8,2470.288,13.32,0.023,97.4
2020-03-02T04:16:03,42.805,6.029,0.027,0.02,0.023,106.0,109.0,102.0,13.3,1505.3,328.0,-0.7,1.9,2470.262,13.33,0.033,53.5
2020-03-02T04:19:03,42.805,6.029,0.028,0.0,-0.003,106.0,109.0,103.0,13.4,1505.3,327.2,-0.7,1.8,2470.264,13.33,0.028,90.0
2020-03-02T04:22:03,42.805,6.029,0.014,0.003,-0.013,107.0,110.0,102.0,13.4,1505.3,324.9,-0.7,1.8,2470.274,13.33,0.014,77.9
2020-03-02T04:25:03,42.805,6.029,0.015,-0.001,-0.009,107.0,108.0,102.0,13.4,1505.3,324.9,-0.7,1.8,2470.204,13.33,0.015,93.8
2020-03-02T04:28:03,42.805,6.029,0.014,-0.027,-0.004,108.0,108.0,103.0,13.4,1505.3,323.2,-0.7,1.8,2470.24,13.33,0.03,152.6
2020-03-02T04:31:03,42.805,6.029,0.022,-0.003,-0.015,106.0,109.0,103.0,13.3,1505.3,324.5,-0.7,1.8,2470.254,13.33,0.022,97.8
2020-03-02T04:37:03,42.805,6.029,-0.009,-0.032,-0.037,106.0,111.0,103.0,13.3,1505.3,326.3,-0.8,1.8,2470.333,13.31,0.033,195.7
2020-03-02T04:40:03,42.805,6.029,0.01,-0.006,-0.026,105.0,111.0,102.0,13.3,1505.3,327.9,-0.7,1.8,2470.254,13.32,0.011,121.0
2020-03-02T04:43:03,42.805,6.029,0.015,0.006,-0.063,107.0,111.0,103.0,13.3,1505.3,326.4,-0.7,1.8,2470.263,13.32,0.016,68.2
2020-03-02T04:46:03,42.805,6.029,0.0,0.003,-0.01,107.0,109.0,104.0,13.3,1505.3,325.1,-0.8,1.9,2470.254,13.33,0.003,0.0
2020-03-02T04:49:03,42.805,6.029,-0.012,-0.011,-0.045,108.0,108.0,103.0,13.3,1505.3,322.8,-0.7,1.9,2470.25,13.33,0.016,227.5
2020-03-02T04:52:03,42.805,6.029,-0.012,-0.003,-0.022,106.0,109.0,102.0,13.4,1505.3,324.6,-0.7,1.8,2470.252,13.33,0.012,256.0
2020-03-02T04:55:03,42.805,6.029,0.011,-0.006,-0.04,106.0,110.0,103.0,13.4,1505.3,327.0,-0.7,1.8,2470.259,13.33,0.012,118.6
2020-03-02T04:58:03,42.805,6.029,-0.008,0.0,-0.035,106.0,109.0,103.0,13.4,1505.3,325.9,-0.7,1.8,2470.259,13.33,0.008,270.0
2020-03-02T05:04:03,42.805,6.029,0.003,0.01,-0.025,106.0,107.0,104.0,13.4,1505.3,323.1,-0.7,1.8,2470.262,13.31,0.01,16.7
2020-03-02T05:07:03,42.805,6.029,0.023,0.0,0.016,106.0,109.0,102.0,13.4,1505.3,325.0,-0.7,1.8,2470.266,13.32,0.023,90.0
2020-03-02T05:10:03,42.805,6.029,0.009,-0.007,0.0,107.0,110.0,104.0,13.4,1505.3,328.0,-0.7,1.9,2470.25,13.32,0.011,127.9
2020-03-02T05:13:03,42.805,6.029,0.001,-0.008,-0.019,106.0,108.0,103.0,13.4,1505.3,323.0,-0.7,1.9,2470.249,13.33,0.008,172.9
2020-03-02T05:16:03,42.805,6.029,-0.027,0.0,-0.051,107.0,108.0,103.0,13.4,1505.3,326.6,-0.7,1.9,2470.239,13.33,0.026,270.0
2020-03-02T05:19:03,42.805,6.029,-0.006,-0.001,-0.042,107.0,109.0,104.0,13.4,1505.3,325.9,-0.7,1.8,2470.265,13.33,0.006,260.5
2020-03-02T05:22:03,42.805,6.029,-0.012,-0.012,0.0,106.0,110.0,103.0,13.3,1505.3,327.6,-0.7,1.8,2470.244,13.33,0.016,225.0
2020-03-02T05:25:03,42.805,6.029,0.026,-0.013,-0.026,107.0,107.0,102.0,13.4,1505.3,325.6,-0.6,1.8,2470.227,13.33,0.029,116.6
2020-03-02T05:28:03,42.805,6.029,0.008,-0.005,-0.036,107.0,109.0,103.0,13.3,1505.3,327.7,-0.7,1.8,2470.227,13.33,0.009,122.0
2020-03-02T05:34:03,42.805,6.029,0.0,-0.002,-0.056,106.0,107.0,102.0,13.4,1505.3,327.9,-0.8,1.8,2470.269,13.31,0.002,180.0
2020-03-02T05:37:03,42.805,6.029,0.006,-0.006,-0.025,106.0,109.0,103.0,13.3,1505.3,326.4,-0.7,1.8,2470.287,13.32,0.008,135.0
2020-03-02T05:40:03,42.805,6.029,-0.004,-0.02,-0.055,105.0,108.0,103.0,13.4,1505.3,327.3,-0.7,1.8,2470.254,13.32,0.02,191.3
2020-03-02T05:43:03,42.805,6.029,0.001,-0.01,-0.042,106.0,108.0,102.0,13.4,1505.3,327.3,-0.7,1.9,2470.244,13.32,0.01,174.3
2020-03-02T05:46:03,42.805,6.029,0.015,-0.013,-0.011,105.0,110.0,104.0,13.4,1505.3,327.2,-0.7,1.8,2470.231,13.33,0.019,130.9
2020-03-02T05:49:03,42.805,6.029,-0.023,0.009,-0.04,106.0,108.0,102.0,13.4,1505.3,327.1,-0.7,1.8,2470.28,13.33,0.024,291.4
2020-03-02T05:52:03,42.805,6.029,-0.03,-0.018,-0.04,105.0,109.0,103.0,13.4,1505.3,327.5,-0.7,1.8,2470.261,13.33,0.034,239.0
2020-03-02T05:55:03,42.805,6.029,-0.01,0.01,-0.027,105.0,108.0,103.0,13.4,1505.3,326.2,-0.7,1.8,2470.222,13.33,0.014,315.0
2020-03-02T05:58:03,42.805,6.029,-0.007,-0.004,-0.048,107.0,108.0,102.0,13.4,1505.3,326.2,-0.7,1.8,2470.212,13.33,0.008,240.3
2020-03-02T06:04:03,42.805,6.029,0.008,-0.004,-0.039,105.0,108.0,102.0,13.4,1505.3,323.7,-0.8,1.8,2470.215,13.31,0.008,116.6
2020-03-02T06:07:03,42.805,6.029,0.024,-0.012,-0.024,106.0,107.0,101.0,13.4,1505.3,328.2,-0.7,1.8,2470.267,13.31,0.026,116.6
2020-03-02T06:10:03,42.805,6.029,0.047,0.015,0.012,105.0,107.0,102.0,13.4,1505.3,324.7,-0.7,1.9,2470.203,13.32,0.049,72.3
2020-03-02T06:13:03,42.805,6.029,0.021,-0.002,-0.029,104.0,108.0,102.0,13.4,1505.3,326.3,-0.7,1.8,2470.273,13.32,0.021,95.4
2020-03-02T06:16:03,42.805,6.029,-0.003,-0.001,-0.046,105.0,107.0,101.0,13.4,1505.3,324.2,-0.7,1.8,2470.26,13.32,0.003,251.6
2020-03-02T06:19:03,42.805,6.029,0.024,0.0,0.0,107.0,107.0,102.0,13.4,1505.3,323.2,-0.6,1.8,2470.204,13.33,0.024,90.0
2020-03-02T06:22:03,42.805,6.029,0.002,-0.001,-0.023,106.0,108.0,103.0,13.4,1505.3,325.5,-0.7,1.8,2470.236,13.33,0.002,116.6
2020-03-02T06:25:03,42.805,6.029,0.026,-0.009,-0.008,106.0,107.0,102.0,13.4,1505.3,325.0,-0.7,1.8,2470.268,13.33,0.027,109.1
2020-03-02T06:28:03,42.805,6.029,0.013,-0.012,-0.025,106.0,106.0,103.0,13.4,1505.3,326.4,-0.7,1.8,2470.259,13.33,0.017,132.7
2020-03-02T06:31:03,42.805,6.029,-0.007,0.019,-0.024,106.0,107.0,102.0,13.3,1505.3,328.7,-0.7,1.9,2470.232,13.33,0.02,339.8
2020-03-02T06:34:03,42.805,6.029,0.015,0.011,-0.02,105.0,107.0,103.0,13.4,1505.3,326.6,-0.7,1.8,2470.202,13.33,0.018,53.7
2020-03-02T06:37:03,42.805,6.029,0.0,0.0,-0.021,105.0,106.0,102.0,13.4,1505.3,325.0,-0.7,1.8,2470.251,13.33,0.0,0.0
2020-03-02T06:40:03,42.805,6.029,0.01,0.003,-0.029,104.0,108.0,103.0,13.4,1505.3,323.6,-0.7,1.8,2470.258,13.33,0.01,73.3
2020-03-02T06:43:03,42.805,6.029,-0.006,0.015,-0.022,105.0,110.0,103.0,13.4,1505.3,326.2,-0.7,1.8,2470.251,13.33,0.016,338.2
2020-03-02T06:46:03,42.805,6.029,0.004,0.001,0.013,105.0,109.0,103.0,13.3,1505.3,327.5,-0.7,1.9,2470.22,13.33,0.004,76.0
2020-03-02T06:49:03,42.805,6.029,-0.025,0.007,-0.03,104.0,109.0,102.0,13.4,1505.3,326.3,-0.7,1.8,2470.272,13.33,0.025,285.6
2020-03-02T06:52:03,42.805,6.029,0.024,0.002,0.001,104.0,107.0,102.0,13.4,1505.3,328.5,-0.8,1.9,2470.231,13.33,0.024,85.2
2020-03-02T06:55:03,42.805,6.029,-0.021,-0.004,-0.054,104.0,107.0,101.0,13.3,1505.3,325.6,-0.7,1.8,2470.226,13.33,0.021,259.2
2020-03-02T06:58:03,42.805,6.029,-0.026,0.002,-0.035,107.0,106.0,102.0,13.4,1505.3,327.8,-0.7,1.9,2470.232,13.33,0.026,274.4
2020-03-02T07:04:03,42.805,6.029,-0.008,0.023,-0.035,106.0,107.0,101.0,13.3,1505.3,325.3,-0.7,1.8,2470.241,13.31,0.024,340.8
2020-03-02T07:07:03,42.805,6.029,-0.022,-0.009,-0.025,105.0,108.0,103.0,13.4,1505.3,326.7,-0.7,1.9,2470.258,13.32,0.023,247.8
2020-03-02T07:10:03,42.805,6.029,-0.019,0.0,-0.058,105.0,107.0,101.0,13.3,1505.3,325.4,-0.7,1.8,2470.26,13.32,0.019,270.0
2020-03-02T07:13:03,42.805,6.029,0.016,0.001,-0.026,106.0,107.0,101.0,13.3,1505.3,323.3,-0.7,1.8,2470.262,13.32,0.016,86.4
2020-03-02T07:16:03,42.805,6.029,-0.016,0.0,-0.025,105.0,107.0,101.0,13.3,1505.3,328.7,-0.7,1.8,2470.269,13.33,0.016,270.0
2020-03-02T07:19:03,42.805,6.029,-0.041,0.013,-0.085,105.0,107.0,102.0,13.3,1505.3,325.7,-0.7,1.8,2470.263,13.33,0.043,287.6
2020-03-02T07:22:03,42.805,6.029,-0.015,0.004,-0.036,105.0,105.0,102.0,13.4,1505.3,326.8,-0.7,1.8,2470.243,13.33,0.015,284.9
2020-03-02T07:25:03,42.805,6.029,-0.032,-0.016,-0.069,105.0,106.0,102.0,13.3,1505.3,325.8,-0.7,1.8,2470.285,13.33,0.035,243.4
2020-03-02T07:28:03,42.805,6.029,-0.001,-0.006,-0.053,105.0,106.0,103.0,13.3,1505.3,326.8,-0.7,1.9,2470.223,13.33,0.006,189.5
2020-03-02T07:31:03,42.805,6.029,-0.021,-0.013,-0.04,105.0,108.0,102.0,13.4,1505.3,324.6,-0.7,1.8,2470.259,13.33,0.024,238.2
2020-03-02T07:34:03,42.805,6.029,-0.019,-0.008,-0.028,106.0,109.0,102.0,13.3,1505.3,328.0,-0.7,1.8,2470.251,13.33,0.02,247.2
2020-03-02T07:37:03,42.805,6.029,-0.014,-0.01,-0.083,106.0,110.0,102.0,13.4,1505.3,324.2,-0.7,1.9,2470.196,13.33,0.017,234.5
2020-03-02T07:40:03,42.805,6.029,-0.015,0.003,-0.016,106.0,108.0,103.0,13.4,1505.3,324.7,-0.7,1.8,2470.19,13.33,0.015,281.3
2020-03-02T07:43:03,42.805,6.029,0.005,0.004,-0.008,104.0,109.0,104.0,13.4,1505.3,327.0,-0.7,1.8,2470.243,13.33,0.006,51.3
2020-03-02T07:49:03,42.805,6.029,-0.029,0.016,-0.054,104.0,107.0,102.0,13.4,1505.3,323.7,-0.7,1.8,2470.269,13.31,0.033,298.9
2020-03-02T07:52:03,42.805,6.029,-0.013,0.011,-0.063,104.0,108.0,103.0,13.3,1505.3,328.4,-0.7,1.8,2470.299,13.32,0.017,310.2
2020-03-02T07:55:03,42.805,6.029,-0.011,-0.005,-0.06,105.0,107.0,103.0,13.3,1505.3,327.3,-0.7,1.8,2470.297,13.32,0.012,245.6
2020-03-02T07:58:03,42.805,6.029,-0.025,0.016,-0.036,105.0,107.0,103.0,13.4,1505.3,323.8,-0.7,1.8,2470.217,13.32,0.029,302.6
2020-03-02T08:04:03,42.805,6.029,-0.02,0.006,-0.012,105.0,106.0,102.0,13.4,1505.3,328.1,-0.7,1.8,2470.304,13.31,0.02,286.7
2020-03-02T08:07:03,42.805,6.029,0.012,-0.01,-0.038,106.0,106.0,101.0,13.4,1505.3,325.6,-0.7,1.8,2470.293,13.31,0.015,129.8
2020-03-02T08:10:03,42.805,6.029,-0.014,0.006,-0.054,104.0,106.0,102.0,13.4,1505.3,323.2,-0.7,1.8,2470.297,13.32,0.015,293.2
2020-03-02T08:13:03,42.805,6.029,-0.009,-0.005,-0.012,106.0,107.0,102.0,13.4,1505.3,328.6,-0.7,1.8,2470.281,13.32,0.01,240.9
2020-03-02T08:16:03,42.805,6.029,-0.017,0.012,0.007,107.0,107.0,104.0,13.3,1505.3,326.3,-0.8,1.8,2470.282,13.32,0.02,305.2
2020-03-02T08:19:03,42.805,6.029,-0.001,-0.001,-0.028,106.0,109.0,103.0,13.4,1505.3,323.6,-0.8,1.8,2470.283,13.33,0.001,225.0
2020-03-02T08:22:03,42.805,6.029,0.0,-0.004,-0.024,107.0,107.0,104.0,13.3,1505.3,324.5,-0.7,1.8,2470.238,13.33,0.004,180.0
2020-03-02T08:25:03,42.805,6.029,0.0,0.005,0.0,106.0,109.0,104.0,13.4,1505.3,323.0,-0.7,1.8,2470.238,13.33,0.005,0.0
2020-03-02T08:28:03,42.805,6.029,0.007,0.017,-0.038,106.0,110.0,103.0,13.4,1505.3,327.8,-0.7,1.9,2470.317,13.33,0.018,22.4
2020-03-02T08:31:03,42.805,6.029,-0.03,0.011,-0.066,107.0,111.0,105.0,13.4,1505.3,327.3,-0.7,1.8,2470.271,13.33,0.031,290.1
2020-03-02T08:34:03,42.805,6.029,0.002,0.016,-0.039,106.0,109.0,103.0,13.3,1505.3,327.4,-0.7,1.8,2470.27,13.33,0.016,7.1
2020-03-02T08:37:03,42.805,6.029,-0.005,-0.005,-0.015,107.0,108.0,102.0,13.4,1505.3,325.4,-0.7,1.8,2470.279,13.33,0.007,225.0
2020-03-02T08:40:03,42.805,6.029,-0.015,0.008,-0.028,107.0,109.0,103.0,13.4,1505.3,328.1,-0.7,1.8,2470.251,13.33,0.017,298.1
2020-03-02T08:43:03,42.805,6.029,0.017,-0.016,-0.011,105.0,108.0,101.0,13.3,1505.3,325.6,-0.7,1.8,2470.22,13.33,0.023,133.3
2020-03-02T08:46:03,42.805,6.029,-0.01,0.012,-0.037,106.0,108.0,102.0,13.3,1505.3,326.3,-0.7,1.8,2470.24,13.33,0.015,320.2
2020-03-02T08:49:03,42.805,6.029,0.024,0.0,0.029,107.0,109.0,103.0,13.4,1505.3,324.5,-0.7,1.8,2470.273,13.33,0.024,90.0
2020-03-02T08:52:03,42.805,6.029,-0.041,0.002,-0.053,106.0,107.0,103.0,13.4,1505.3,326.7,-0.7,1.8,2470.252,13.33,0.041,272.8
2020-03-02T08:55:03,42.805,6.029,0.016,0.01,-0.048,106.0,109.0,103.0,13.4,1505.3,324.6,-0.7,1.9,2470.291,13.33,0.018,58.0
2020-03-02T08:58:03,42.805,6.029,-0.005,0.005,-0.056,105.0,108.0,102.0,13.3,1505.3,325.3,-0.7,1.8,2470.254,13.33,0.007,315.0
2020-03-02T09:04:03,42.805,6.029,-0.042,0.0,-0.033,104.0,107.0,103.0,13.4,1505.3,327.4,-0.8,1.8,2470.323,13.31,0.042,270.0
2020-03-02T09:07:03,42.805,6.029,-0.006,0.007,-0.039,106.0,109.0,101.0,13.4,1505.3,323.1,-0.7,1.8,2470.291,13.32,0.009,319.4
2020-03-02T09:10:03,42.805,6.029,0.013,0.003,-0.067,106.0,109.0,102.0,13.4,1505.3,326.6,-0.7,1.8,2470.326,13.32,0.013,77.0
2020-03-02T09:13:03,42.805,6.029,-0.025,0.009,-0.043,104.0,108.0,101.0,13.4,1505.3,323.0,-0.7,1.8,2470.313,13.32,0.026,289.8
2020-03-02T09:16:03,42.805,6.029,0.0,0.024,-0.01,105.0,107.0,102.0,13.3,1505.3,324.0,-0.7,1.9,2470.27,13.33,0.024,0.0
2020-03-02T09:19:03,42.805,6.029,-0.009,-0.003,-0.013,106.0,107.0,102.0,13.3,1505.3,327.8,-0.7,1.8,2470.268,13.33,0.009,251.6
2020-03-02T09:22:03,42.805,6.029,-0.033,0.0,-0.052,105.0,108.0,102.0,13.3,1505.3,327.0,-0.7,1.8,2470.334,13.33,0.033,270.0
2020-03-02T09:25:03,42.805,6.029,-0.026,0.008,-0.037,104.0,108.0,102.0,13.3,1505.3,323.5,-0.8,1.8,2470.31,13.33,0.027,287.1
2020-03-02T09:28:03,42.805,6.029,-0.026,0.004,-0.049,105.0,108.0,103.0,13.3,1505.3,328.5,-0.7,1.8,2470.313,13.33,0.026,278.7
2020-03-02T09:31:03,42.805,6.029,-0.033,0.016,-0.051,105.0,108.0,103.0,13.4,1505.3,324.9,-0.8,1.8,2470.314,13.33,0.036,295.9
2020-03-02T09:34:03,42.805,6.029,-0.021,-0.001,-0.033,107.0,109.0,102.0,13.4,1505.3,326.8,-0.7,1.8,2470.294,13.33,0.021,267.3
2020-03-02T09:37:03,42.805,6.029,0.007,0.024,-0.005,106.0,110.0,102.0,13.4,1505.3,324.4,-0.7,1.8,2470.298,13.33,0.025,16.3
2020-03-02T09:40:03,42.805,6.029,-0.05,-0.003,-0.092,105.0,110.0,102.0,13.3,1505.3,323.0,-0.7,1.8,2470.265,13.33,0.05,266.6
2020-03-02T09:43:03,42.805,6.029,-0.017,0.008,-0.058,106.0,108.0,103.0,13.4,1505.3,326.1,-0.7,1.8,2470.296,13.33,0.018,295.2
2020-03-02T09:46:03,42.805,6.029,0.017,0.0,-0.004,105.0,110.0,103.0,13.3,1505.3,325.0,-0.7,1.8,2470.337,13.33,0.017,90.0
2020-03-02T09:49:03,42.805,6.029,0.011,0.009,-0.041,105.0,109.0,102.0,13.4,1505.3,326.2,-0.7,1.8,2470.324,13.33,0.014,50.7
2020-03-02T09:52:03,42.805,6.029,-0.021,0.026,-0.027,106.0,109.0,102.0,13.4,1505.3,326.0,-0.7,1.8,2470.313,13.33,0.033,321.1
2020-03-02T09:55:03,42.805,6.029,-0.024,0.003,-0.057,105.0,108.0,102.0,13.4,1505.3,325.7,-0.7,1.8,2470.329,13.33,0.024,277.1
2020-03-02T09:58:03,42.805,6.029,-0.016,0.016,-0.063,106.0,108.0,102.0,13.4,1505.3,323.9,-0.7,1.9,2470.284,13.33,0.022,315.0
2020-03-02T10:04:03,42.805,6.029,-0.032,0.01,-0.014,105.0,108.0,102.0,13.4,1505.3,324.2,-0.7,1.8,2470.305,13.31,0.033,287.4
2020-03-02T10:07:03,42.805,6.029,-0.011,0.002,-0.058,106.0,108.0,102.0,13.4,1505.3,326.8,-0.7,1.8,2470.35,13.32,0.011,280.3
2020-03-02T10:10:03,42.805,6.029,-0.026,0.006,-0.026,105.0,108.0,102.0,13.4,1505.3,324.3,-0.7,1.9,2470.355,13.32,0.026,283.0
2020-03-02T10:13:03,42.805,6.029,-0.017,0.014,-0.03,105.0,107.0,103.0,13.4,1505.3,327.4,-0.7,1.8,2470.346,13.33,0.022,309.5
2020-03-02T10:16:03,42.805,6.029,-0.018,0.017,-0.038,105.0,109.0,104.0,13.3,1505.3,324.4,-0.7,1.8,2470.354,13.33,0.024,313.4